23/03/2021 09:30,1,14,14,25.43,41.00
23/03/2021 10:00,1,15,15,24.60,32.00
23/03/2021 11:30,1,130,130,22.95,38.00
23/03/2021 12:00,1,132,132,22.77,37.00
23/03/2021 12:30,1,159,159,22.54,42.00
23/03/2021 13:00,1,164,164,22.45,41.00
23/03/2021 13:30,1,136,136,22.98,41.00
23/03/2021 14:00,1,156,156,22.60,40.00
23/03/2021 14:30,1,140,140,22.97,43.00
23/03/2021 15:00,1,142,142,23.69,53.00
23/03/2021 15:30,1,174,174,22.78,39.00
23/03/2021 16:00,1,110,110,21.35,34.00
23/03/2021 16:30,1,163,163,21.56,35.00
23/03/2021 17:00,1,158,158,22.08,36.00
23/03/2021 17:30,1,164,164,23.29,37.00
23/03/2021 18:00,1,158,158,22.84,38.00
23/03/2021 18:30,1,111,111,22.76,35.00
23/03/2021 19:00,1,128,128,23.86,38.00
23/03/2021 19:30,1,112,112,23.88,43.00
23/03/2021 20:00,1,84,84,24.14,42.00
23/03/2021 20:30,1,91,91,24.66,50.00
23/03/2021 21:00,1,65,65,25.72,44.00
23/03/2021 21:30,1,50,50,26.82,55.00
23/03/2021 22:00,1,53,53,30.70,62.00
23/03/2021 22:30,1,33,33,28.94,52.00
23/03/2021 23:00,1,16,16,26.69,39.00
23/03/2021 23:30,1,14,14,24.50,41.00
24/03/2021 00:00,1,9,9,27.33,35.00
24/03/2021 00:30,1,15,15,24.73,35.00
24/03/2021 01:00,1,7,7,26.43,32.00
24/03/2021 01:30,1,1,1,39.00,39.00
24/03/2021 02:00,1,1,1,34.00,34.00
24/03/2021 02:30,1,4,4,20.00,22.00
24/03/2021 03:00,1,13,13,28.08,36.00
24/03/2021 03:30,1,3,3,30.33,42.00
24/03/2021 04:00,1,10,10,27.00,43.00
24/03/2021 04:30,1,16,16,26.38,32.00
24/03/2021 05:00,1,42,42,27.90,49.00
24/03/2021 05:30,1,71,71,24.89,44.00
24/03/2021 06:00,1,102,102,25.56,43.00
24/03/2021 06:30,1,127,127,25.04,43.00
24/03/2021 07:00,1,156,156,24.56,39.00
24/03/2021 07:30,1,129,129,23.47,36.00
24/03/2021 08:00,1,129,129,23.45,42.00
24/03/2021 08:30,1,147,147,24.38,37.00
24/03/2021 09:00,1,133,133,24.22,37.00
24/03/2021 09:30,1,121,121,22.55,36.00
24/03/2021 10:00,1,107,107,23.48,39.00
24/03/2021 10:30,1,166,166,23.51,37.00
24/03/2021 11:00,1,137,137,24.10,39.00
24/03/2021 11:30,1,128,128,23.60,35.00
24/03/2021 12:00,1,143,143,22.24,35.00
24/03/2021 12:30,1,163,163,23.25,41.00
24/03/2021 13:00,1,149,149,22.91,39.00
24/03/2021 13:30,1,162,162,22.27,41.00
24/03/2021 14:00,1,185,185,22.96,39.00
24/03/2021 14:30,1,159,159,22.86,38.00
24/03/2021 15:00,1,165,165,23.76,42.00
24/03/2021 15:30,1,165,165,22.82,37.00
24/03/2021 16:00,1,191,191,22.24,46.00
24/03/2021 16:30,1,152,152,22.03,46.00
24/03/2021 17:00,1,175,175,22.56,42.00
24/03/2021 17:30,1,122,122,22.44,41.00
24/03/2021 18:00,1,133,133,23.68,36.00
24/03/2021 18:30,1,126,126,22.81,37.00
24/03/2021 19:00,1,121,121,24.16,57.00
24/03/2021 19:30,1,102,102,24.13,46.00
24/03/2021 20:00,1,116,116,24.21,38.00
24/03/2021 20:30,1,82,82,24.89,43.00
24/03/2021 21:00,1,78,78,29.19,49.00
24/03/2021 21:30,1,59,59,25.15,54.00
24/03/2021 22:00,1,34,34,26.09,40.00
24/03/2021 22:30,1,26,26,26.62,47.00
24/03/2021 23:00,1,27,27,27.37,60.00
24/03/2021 23:30,1,27,27,27.07,52.00
25/03/2021 00:00,1,10,10,33.80,51.00
25/03/2021 00:30,1,12,12,27.17,35.00
25/03/2021 01:00,1,4,4,21.00,22.00
25/03/2021 01:30,1,4,4,29.25,40.00
25/03/2021 02:00,1,2,2,25.00,29.00
25/03/2021 02:30,1,3,3,22.67,30.00
25/03/2021 03:00,1,8,8,24.88,34.00
25/03/2021 03:30,1,2,2,23.00,24.00
25/03/2021 04:00,1,6,6,26.50,35.00
25/03/2021 04:30,1,20,20,28.70,42.00
25/03/2021 05:00,1,52,52,26.23,45.00
25/03/2021 05:30,1,60,60,26.68,59.00
25/03/2021 06:00,1,111,111,25.27,42.00
25/03/2021 06:30,1,149,149,24.96,43.00
25/03/2021 07:00,1,153,153,25.16,40.00
25/03/2021 07:30,1,150,150,23.64,40.00
25/03/2021 08:00,1,100,100,23.64,37.00
25/03/2021 08:30,1,114,114,23.12,41.00
25/03/2021 09:00,1,121,121,23.52,41.00
25/03/2021 09:30,1,116,116,24.03,43.00
25/03/2021 10:00,1,116,116,22.20,34.00
25/03/2021 10:30,1,144,144,23.53,41.00
25/03/2021 11:00,1,162,162,23.33,43.00
25/03/2021 11:30,1,127,127,22.86,33.00
25/03/2021 12:00,1,159,159,23.63,40.00
25/03/2021 12:30,1,148,148,22.03,34.00
25/03/2021 13:00,1,152,152,22.32,41.00
25/03/2021 13:30,1,151,151,23.08,41.00
25/03/2021 14:00,1,145,145,23.46,43.00
25/03/2021 14:30,1,166,166,22.43,42.00
25/03/2021 15:00,1,160,160,23.69,45.00
25/03/2021 15:30,1,159,159,22.64,38.00
25/03/2021 16:00,1,158,158,22.71,35.00
25/03/2021 16:30,1,158,158,22.89,43.00
25/03/2021 17:00,1,188,188,22.68,40.00
25/03/2021 17:30,1,158,158,22.25,50.00
25/03/2021 18:00,1,146,146,23.21,40.00
25/03/2021 18:30,1,168,168,24.60,60.00
25/03/2021 19:00,1,139,139,23.88,40.00
25/03/2021 19:30,1,106,106,23.71,38.00
25/03/2021 20:00,1,87,87,24.20,43.00
25/03/2021 20:30,1,75,75,25.20,44.00
25/03/2021 21:00,1,62,62,25.23,53.00
25/03/2021 21:30,1,57,57,25.05,40.00
25/03/2021 22:00,1,31,31,26.19,54.00
25/03/2021 22:30,1,41,41,25.15,47.00
25/03/2021 23:00,1,14,14,23.50,36.00
25/03/2021 23:30,1,21,21,27.48,42.00
26/03/2021 00:00,1,13,13,25.62,32.00
26/03/2021 00:30,1,10,10,24.70,49.00
26/03/2021 01:00,1,5,5,22.60,29.00
26/03/2021 01:30,1,3,3,32.33,33.00
26/03/2021 02:00,1,3,3,29.33,40.00
26/03/2021 02:30,1,4,4,26.00,37.00
26/03/2021 03:00,1,9,9,26.78,43.00
26/03/2021 03:30,1,5,5,25.20,45.00
26/03/2021 04:00,1,11,11,28.36,37.00
26/03/2021 04:30,1,20,20,26.45,39.00
26/03/2021 05:00,1,35,35,29.11,53.00
26/03/2021 05:30,1,53,53,26.70,49.00
26/03/2021 06:00,1,117,117,25.52,44.00
26/03/2021 06:30,1,126,126,24.84,40.00
26/03/2021 07:00,1,151,151,24.07,35.00
26/03/2021 07:30,1,105,105,23.67,44.00
26/03/2021 08:00,1,136,136,24.16,43.00
26/03/2021 08:30,1,129,129,23.62,39.00
26/03/2021 09:00,1,147,147,23.41,38.00
26/03/2021 09:30,1,154,154,23.51,39.00
26/03/2021 10:00,1,136,136,23.59,37.00
26/03/2021 10:30,1,136,136,24.13,41.00
26/03/2021 11:00,1,172,172,23.51,47.00
26/03/2021 11:30,1,141,141,22.77,39.00
26/03/2021 12:00,1,159,159,22.45,38.00
26/03/2021 12:30,1,146,146,22.92,35.00
26/03/2021 13:00,1,148,148,21.78,40.00
26/03/2021 13:30,1,158,158,22.17,38.00
26/03/2021 14:00,1,161,161,21.74,39.00
26/03/2021 14:30,1,161,161,22.71,37.00
26/03/2021 15:00,1,189,189,22.25,37.00
26/03/2021 15:30,1,138,138,21.87,40.00
26/03/2021 16:00,1,164,164,21.63,37.00
26/03/2021 16:30,1,150,150,22.10,34.00
26/03/2021 17:00,1,156,156,22.96,39.00
26/03/2021 17:30,1,152,152,22.27,39.00
26/03/2021 18:00,1,131,131,22.72,41.00
26/03/2021 18:30,1,144,144,22.97,40.00
26/03/2021 19:00,1,119,119,23.55,39.00
26/03/2021 19:30,1,122,122,24.40,40.00
26/03/2021 20:00,1,90,90,24.49,61.00
26/03/2021 20:30,1,74,74,25.03,47.00
26/03/2021 21:00,1,79,79,25.99,42.00
26/03/2021 21:30,1,57,57,26.58,52.00
26/03/2021 22:00,1,55,55,27.18,57.00
26/03/2021 22:30,1,33,33,26.33,48.00
26/03/2021 23:00,1,28,28,27.61,50.00
26/03/2021 23:30,1,35,35,27.00,54.00
27/03/2021 00:00,1,29,29,28.79,57.00
27/03/2021 00:30,1,13,13,27.08,41.00
27/03/2021 01:00,1,17,17,26.41,35.00
27/03/2021 01:30,1,3,3,23.33,28.00
27/03/2021 02:00,1,11,11,28.09,42.00
27/03/2021 02:30,1,4,4,28.25,37.00
27/03/2021 03:00,1,5,5,29.80,40.00
27/03/2021 03:30,1,2,2,30.50,39.00
27/03/2021 04:00,1,11,11,32.09,45.00
27/03/2021 04:30,1,3,3,26.67,36.00
27/03/2021 05:00,1,16,16,26.81,43.00
27/03/2021 05:30,1,18,18,25.06,34.00
27/03/2021 06:00,1,34,34,25.91,49.00
27/03/2021 06:30,1,43,43,26.44,40.00
27/03/2021 07:00,1,48,48,25.81,34.00
27/03/2021 07:30,1,75,75,24.33,46.00
27/03/2021 08:00,1,104,104,24.79,40.00
27/03/2021 08:30,1,133,133,24.57,38.00
27/03/2021 09:00,1,124,124,23.96,53.00
27/03/2021 09:30,1,136,136,23.36,36.00
27/03/2021 10:00,1,143,143,23.87,42.00
27/03/2021 10:30,1,165,165,24.33,48.00
27/03/2021 11:00,1,162,162,23.72,43.00
27/03/2021 11:30,1,145,145,23.41,48.00
27/03/2021 12:00,1,143,143,23.44,36.00
27/03/2021 12:30,1,139,139,22.77,36.00
27/03/2021 13:00,1,166,166,23.22,39.00
27/03/2021 13:30,1,170,170,23.11,40.00
27/03/2021 14:00,1,151,151,23.18,38.00
27/03/2021 14:30,1,145,145,23.63,46.00
27/03/2021 15:00,1,180,180,23.92,39.00
27/03/2021 15:30,1,155,155,24.24,45.00
27/03/2021 16:00,1,140,140,24.20,38.00
27/03/2021 16:30,1,149,149,24.17,46.00
27/03/2021 17:00,1,140,140,24.04,39.00
27/03/2021 17:30,1,141,141,24.80,41.00
27/03/2021 18:00,1,125,125,23.80,38.00
27/03/2021 18:30,1,131,131,24.96,52.00
27/03/2021 19:00,1,101,101,24.44,45.00
27/03/2021 19:30,1,108,108,24.33,44.00
27/03/2021 20:00,1,76,76,25.09,44.00
27/03/2021 20:30,1,79,79,26.06,55.00
27/03/2021 21:00,1,85,85,27.87,52.00
27/03/2021 21:30,1,67,67,24.90,44.00
27/03/2021 22:00,1,42,42,26.86,45.00
27/03/2021 22:30,1,49,49,28.59,53.00
27/03/2021 23:00,1,28,28,25.25,39.00
27/03/2021 23:30,1,30,30,26.43,47.00
28/03/2021 00:00,1,23,23,27.17,44.00
28/03/2021 00:30,1,27,27,28.04,44.00
28/03/2021 01:00,1,16,16,27.19,46.00
28/03/2021 01:30,1,12,12,27.33,34.00
28/03/2021 03:00,1,16,16,26.31,34.00
28/03/2021 03:30,1,7,7,30.29,40.00
28/03/2021 04:00,1,8,8,30.25,43.00
28/03/2021 04:30,1,7,7,26.00,38.00
28/03/2021 05:00,1,10,10,29.10,44.00
28/03/2021 05:30,1,9,9,24.33,34.00
28/03/2021 06:00,1,16,16,25.69,36.00
28/03/2021 06:30,1,18,18,24.44,32.00
28/03/2021 07:00,1,23,23,25.48,41.00
28/03/2021 07:30,1,36,36,25.31,45.00
28/03/2021 08:00,1,47,47,24.32,35.00
28/03/2021 08:30,1,53,53,24.89,39.00
28/03/2021 09:00,1,60,60,26.00,42.00
28/03/2021 09:30,1,86,86,25.45,42.00
28/03/2021 10:00,1,96,96,25.11,37.00
28/03/2021 10:30,1,125,125,24.11,41.00
28/03/2021 11:00,1,161,161,25.41,40.00
28/03/2021 11:30,1,160,160,26.12,57.00
28/03/2021 12:00,1,160,160,24.62,42.00
28/03/2021 12:30,1,163,163,24.21,48.00
28/03/2021 13:00,1,165,165,23.66,40.00
28/03/2021 13:30,1,154,154,24.31,43.00
28/03/2021 14:00,1,208,208,23.62,42.00
28/03/2021 14:30,1,172,172,23.64,38.00
28/03/2021 15:00,1,159,159,24.00,37.00
28/03/2021 15:30,1,137,137,23.70,42.00
28/03/2021 16:00,1,123,123,25.18,41.00
28/03/2021 16:30,1,139,139,24.66,37.00
28/03/2021 17:00,1,130,130,25.68,46.00
28/03/2021 17:30,1,122,122,25.01,42.00
28/03/2021 18:00,1,153,153,24.44,41.00
28/03/2021 18:30,1,123,123,26.33,44.00
28/03/2021 19:00,1,127,127,24.60,39.00
28/03/2021 19:30,1,108,108,25.90,60.00
28/03/2021 20:00,1,86,86,24.44,43.00
28/03/2021 20:30,1,75,75,26.32,43.00
28/03/2021 21:00,1,76,76,26.83,48.00
28/03/2021 21:30,1,54,54,28.09,49.00
28/03/2021 22:00,1,45,45,29.49,54.00
28/03/2021 22:30,1,33,33,26.67,68.00
28/03/2021 23:00,1,12,12,27.92,39.00
28/03/2021 23:30,1,28,28,25.36,48.00
29/03/2021 00:00,1,8,8,29.00,40.00
29/03/2021 00:30,1,7,7,26.86,37.00
29/03/2021 01:00,1,1,1,27.00,27.00
29/03/2021 01:30,1,2,2,34.00,34.00
29/03/2021 02:00,1,5,5,26.20,30.00
29/03/2021 02:30,1,3,3,23.67,24.00
29/03/2021 03:00,1,14,14,29.79,45.00
29/03/2021 03:30,1,25,25,27.20,49.00
29/03/2021 04:00,1,45,45,27.98,49.00
29/03/2021 04:30,1,60,60,25.05,40.00
29/03/2021 05:00,1,97,97,25.11,43.00
29/03/2021 05:30,1,136,136,24.63,44.00
29/03/2021 06:00,1,135,135,24.07,40.00
29/03/2021 06:30,1,132,132,23.04,33.00
29/03/2021 07:00,1,139,139,22.93,41.00
29/03/2021 07:30,1,124,124,23.85,39.00
29/03/2021 08:00,1,136,136,23.87,41.00
29/03/2021 08:30,1,162,162,24.58,72.00
29/03/2021 09:00,1,135,135,22.98,42.00
29/03/2021 09:30,1,141,141,22.55,33.00
29/03/2021 10:00,1,147,147,22.29,40.00
29/03/2021 10:30,1,139,139,23.80,37.00
29/03/2021 11:00,1,176,176,22.74,39.00
29/03/2021 11:30,1,139,139,22.62,36.00
29/03/2021 12:00,1,179,179,22.65,53.00
29/03/2021 12:30,1,160,160,23.41,65.00
29/03/2021 13:00,1,170,170,23.68,36.00
29/03/2021 13:30,1,157,157,23.48,49.00
29/03/2021 14:00,1,135,135,23.61,40.00
29/03/2021 14:30,1,136,136,21.89,38.00
29/03/2021 15:00,1,157,157,22.18,38.00
29/03/2021 15:30,1,145,145,21.99,37.00
29/03/2021 16:00,1,134,134,21.60,38.00
29/03/2021 16:30,1,156,156,22.25,36.00
29/03/2021 17:00,1,164,164,22.97,34.00
29/03/2021 17:30,1,132,132,24.50,53.00
29/03/2021 18:00,1,118,118,24.64,43.00
29/03/2021 18:30,1,129,129,24.57,48.00
29/03/2021 19:00,1,109,109,24.95,43.00
29/03/2021 19:30,1,84,84,24.56,39.00
29/03/2021 20:00,1,77,77,26.25,44.00
29/03/2021 20:30,1,78,78,27.17,46.00
29/03/2021 21:00,1,45,45,28.02,51.00
29/03/2021 21:30,1,35,35,26.71,40.00
29/03/2021 22:00,1,22,22,28.36,41.00
29/03/2021 22:30,1,22,22,26.41,42.00
29/03/2021 23:00,1,7,7,25.86,34.00
29/03/2021 23:30,1,10,10,23.20,32.00
30/03/2021 00:00,1,11,11,22.64,33.00
30/03/2021 00:30,1,5,5,31.20,52.00
30/03/2021 01:00,1,2,2,22.50,25.00
30/03/2021 01:30,1,4,4,23.75,31.00
30/03/2021 02:00,1,5,5,24.80,36.00
30/03/2021 02:30,1,1,1,24.00,24.00
30/03/2021 03:00,1,18,18,29.83,44.00
30/03/2021 03:30,1,27,27,26.48,41.00
30/03/2021 04:00,1,36,36,28.33,49.00
30/03/2021 04:30,1,77,77,26.66,45.00
30/03/2021 05:00,1,88,88,26.22,46.00
30/03/2021 05:30,1,115,115,23.96,37.00
30/03/2021 06:00,1,161,161,22.93,37.00
30/03/2021 06:30,1,125,125,22.82,32.00
30/03/2021 07:00,1,147,147,23.59,39.00
30/03/2021 07:30,1,130,130,23.62,35.00
30/03/2021 08:00,1,139,139,22.95,36.00
30/03/2021 08:30,1,143,143,22.34,35.00
30/03/2021 09:00,1,144,144,22.98,48.00
30/03/2021 09:30,1,149,149,23.34,41.00
30/03/2021 10:00,1,146,146,23.55,44.00
30/03/2021 10:30,1,157,157,23.25,45.00
30/03/2021 11:00,1,153,153,22.70,37.00
30/03/2021 11:30,1,166,166,23.04,38.00
30/03/2021 12:00,1,143,143,22.82,38.00
30/03/2021 12:30,1,175,175,22.63,38.00
30/03/2021 13:00,1,156,156,22.50,36.00
30/03/2021 13:30,1,136,136,22.13,34.00
30/03/2021 14:00,1,165,165,22.69,37.00
30/03/2021 14:30,1,157,157,22.87,36.00
30/03/2021 15:00,1,151,151,22.33,35.00
30/03/2021 15:30,1,110,110,20.84,32.00
30/03/2021 16:00,1,164,164,22.63,38.00
30/03/2021 16:30,1,174,174,22.65,35.00
30/03/2021 17:00,1,160,160,22.91,41.00
30/03/2021 17:30,1,148,148,23.79,41.00
30/03/2021 18:00,1,135,135,24.49,53.00
30/03/2021 18:30,1,119,119,24.48,45.00
30/03/2021 19:00,1,97,97,23.76,36.00
30/03/2021 19:30,1,96,96,23.57,35.00
30/03/2021 20:00,1,86,86,26.47,44.00
30/03/2021 20:30,1,69,69,26.52,55.00
30/03/2021 21:00,1,49,49,29.20,51.00
30/03/2021 21:30,1,46,46,27.98,51.00
30/03/2021 22:00,1,28,28,27.04,46.00
30/03/2021 22:30,1,23,23,24.04,41.00
30/03/2021 23:00,1,11,11,28.36,42.00
30/03/2021 23:30,1,12,12,26.83,42.00
31/03/2021 00:00,1,9,9,23.44,37.00
31/03/2021 00:30,1,4,4,29.25,33.00
31/03/2021 01:00,1,4,4,29.25,31.00
31/03/2021 01:30,1,4,4,29.75,39.00
31/03/2021 02:00,1,3,3,24.00,28.00
31/03/2021 02:30,1,5,5,25.60,39.00
31/03/2021 03:00,1,14,14,34.00,50.00
31/03/2021 03:30,1,27,27,25.37,42.00
31/03/2021 04:00,1,47,47,31.36,60.00
31/03/2021 04:30,1,63,63,27.13,45.00
31/03/2021 05:00,1,88,88,25.15,43.00
31/03/2021 05:30,1,117,117,25.54,40.00
31/03/2021 06:00,1,145,145,23.59,37.00
31/03/2021 06:30,1,128,128,23.52,38.00
31/03/2021 07:00,1,122,122,23.67,36.00
31/03/2021 07:30,1,126,126,23.04,35.00
31/03/2021 08:00,1,150,150,23.49,41.00
31/03/2021 08:30,1,138,138,23.12,35.00
31/03/2021 09:00,1,171,171,22.64,51.00
31/03/2021 09:30,1,134,134,22.54,34.00
31/03/2021 10:00,1,161,161,23.56,40.00
31/03/2021 10:30,1,174,174,23.43,39.00
31/03/2021 11:00,1,128,128,22.65,37.00
31/03/2021 11:30,1,110,110,21.95,34.00
31/03/2021 12:00,1,161,161,21.56,38.00
31/03/2021 12:30,1,164,164,22.51,42.00
31/03/2021 13:00,1,153,153,22.98,41.00
31/03/2021 13:30,1,158,158,23.91,43.00
31/03/2021 14:00,1,144,144,22.13,38.00
31/03/2021 14:30,1,151,151,22.11,38.00
31/03/2021 15:00,1,181,181,22.12,37.00
31/03/2021 15:30,1,163,163,21.94,32.00
31/03/2021 16:00,1,108,108,22.55,39.00
31/03/2021 16:30,1,140,140,21.74,33.00
31/03/2021 17:00,1,152,152,22.54,44.00
31/03/2021 17:30,1,149,149,22.76,38.00
31/03/2021 18:00,1,138,138,23.36,43.00
31/03/2021 18:30,1,120,120,24.63,43.00
31/03/2021 19:00,1,115,115,24.46,44.00
31/03/2021 19:30,1,92,92,23.53,35.00
31/03/2021 20:00,1,98,98,26.04,55.00
31/03/2021 20:30,1,56,56,26.59,62.00
31/03/2021 21:00,1,48,48,27.56,50.00
31/03/2021 21:30,1,43,43,26.60,56.00
31/03/2021 22:00,1,31,31,28.39,57.00
31/03/2021 22:30,1,25,25,25.40,36.00
31/03/2021 23:00,1,12,12,29.00,36.00
31/03/2021 23:30,1,9,9,25.78,32.00
01/04/2021 00:00,1,7,7,25.00,29.00
01/04/2021 00:30,1,10,10,29.60,37.00
01/04/2021 01:00,1,3,3,23.33,26.00
01/04/2021 02:00,1,10,10,30.40,39.00
01/04/2021 02:30,1,8,8,27.75,43.00
01/04/2021 03:00,1,22,22,26.32,41.00
01/04/2021 03:30,1,29,29,27.59,45.00
01/04/2021 04:00,1,28,28,28.82,50.00
01/04/2021 04:30,1,68,68,26.85,44.00
01/04/2021 05:00,1,74,74,25.22,49.00
01/04/2021 05:30,1,127,127,25.05,42.00
01/04/2021 06:00,1,147,147,23.42,47.00
01/04/2021 06:30,1,131,131,24.51,39.00
01/04/2021 07:00,1,127,127,24.33,40.00
01/04/2021 07:30,1,111,111,23.41,36.00
01/04/2021 08:00,1,171,171,23.26,35.00
01/04/2021 08:30,1,142,142,23.77,59.00
01/04/2021 09:00,1,156,156,23.82,39.00
01/04/2021 09:30,1,155,155,23.57,37.00
01/04/2021 10:00,1,143,143,22.95,39.00
01/04/2021 10:30,1,173,173,23.14,37.00
01/04/2021 11:00,1,157,157,22.18,41.00
01/04/2021 11:30,1,169,169,22.99,37.00
01/04/2021 12:00,1,177,177,23.07,38.00
01/04/2021 12:30,1,184,184,22.96,54.00
01/04/2021 13:00,1,188,188,21.83,43.00
01/04/2021 13:30,1,187,187,22.60,36.00
01/04/2021 14:00,1,177,177,22.36,36.00
01/04/2021 14:30,1,183,183,22.20,39.00
01/04/2021 15:00,1,193,193,22.25,37.00
01/04/2021 15:30,1,179,179,22.73,41.00
01/04/2021 16:00,1,158,158,22.42,38.00
01/04/2021 16:30,1,168,168,23.20,57.00
01/04/2021 17:00,1,164,164,22.98,39.00
01/04/2021 17:30,1,141,141,23.38,47.00
01/04/2021 18:00,1,113,113,23.06,42.00
01/04/2021 18:30,1,123,123,24.10,41.00
01/04/2021 19:00,1,114,114,24.33,41.00
01/04/2021 19:30,1,90,90,24.80,50.00
01/04/2021 20:00,1,88,88,25.80,47.00
01/04/2021 20:30,1,71,71,26.00,42.00
01/04/2021 21:00,1,62,62,27.97,63.00
01/04/2021 21:30,1,49,49,24.45,38.00
01/04/2021 22:00,1,28,28,28.96,45.00
01/04/2021 22:30,1,32,32,26.41,55.00
01/04/2021 23:00,1,15,15,29.07,46.00
01/04/2021 23:30,1,23,23,31.87,55.00
02/04/2021 00:00,1,8,8,24.50,38.00
02/04/2021 00:30,1,12,12,23.17,37.00
02/04/2021 01:00,1,5,5,31.80,40.00
02/04/2021 01:30,1,6,6,38.67,57.00
02/04/2021 02:00,1,7,7,25.71,37.00
02/04/2021 02:30,1,9,9,27.67,44.00
02/04/2021 03:00,1,3,3,33.33,44.00
02/04/2021 03:30,1,7,7,26.71,34.00
02/04/2021 04:00,1,17,17,29.71,52.00
02/04/2021 04:30,1,14,14,28.36,43.00
02/04/2021 05:00,1,19,19,25.00,34.00
02/04/2021 05:30,1,29,29,26.90,45.00
02/04/2021 06:00,1,41,41,25.29,36.00
02/04/2021 06:30,1,35,35,26.69,42.00
02/04/2021 07:00,1,70,70,25.00,35.00
02/04/2021 07:30,1,87,87,25.95,43.00
02/04/2021 08:00,1,83,83,25.02,45.00
02/04/2021 08:30,1,126,126,24.79,41.00
02/04/2021 09:00,1,152,152,24.85,43.00
02/04/2021 09:30,1,149,149,24.46,45.00
02/04/2021 10:00,1,163,163,25.22,41.00
02/04/2021 10:30,1,194,194,24.05,44.00
02/04/2021 11:00,1,163,163,24.87,41.00
02/04/2021 11:30,1,177,177,24.38,40.00
02/04/2021 12:00,1,178,178,25.51,40.00
02/04/2021 12:30,1,190,190,25.07,37.00
02/04/2021 13:00,1,194,194,24.75,46.00
02/04/2021 13:30,1,168,168,24.29,45.00
02/04/2021 14:00,1,148,148,24.55,38.00
02/04/2021 14:30,1,151,151,24.58,38.00
02/04/2021 15:00,1,145,145,24.21,43.00
02/04/2021 15:30,1,140,140,24.21,46.00
02/04/2021 16:00,1,146,146,24.49,38.00
02/04/2021 16:30,1,129,129,24.39,41.00
02/04/2021 17:00,1,132,132,25.17,40.00
02/04/2021 17:30,1,123,123,25.98,50.00
02/04/2021 18:00,1,103,103,26.10,42.00
02/04/2021 18:30,1,122,122,26.31,53.00
02/04/2021 19:00,1,94,94,25.55,42.00
02/04/2021 19:30,1,80,80,24.84,41.00
02/04/2021 20:00,1,60,60,29.22,59.00
02/04/2021 20:30,1,47,47,27.51,46.00
02/04/2021 21:00,1,48,48,28.50,58.00
02/04/2021 21:30,1,44,44,24.95,38.00
02/04/2021 22:00,1,31,31,27.23,40.00
02/04/2021 22:30,1,28,28,26.00,40.00
02/04/2021 23:00,1,19,19,28.95,41.00
02/04/2021 23:30,1,23,23,29.48,64.00
03/04/2021 00:00,1,11,11,33.27,46.00
03/04/2021 00:30,1,5,5,26.60,31.00
03/04/2021 01:00,1,4,4,27.75,31.00
03/04/2021 01:30,1,6,6,27.50,46.00
03/04/2021 02:00,1,2,2,30.50,33.00
03/04/2021 02:30,1,3,3,36.00,44.00
03/04/2021 03:00,1,12,12,27.17,41.00
03/04/2021 03:30,1,19,19,26.68,44.00
03/04/2021 04:00,1,13,13,25.77,48.00
03/04/2021 04:30,1,28,28,25.68,38.00
03/04/2021 05:00,1,33,33,24.00,39.00
03/04/2021 05:30,1,33,33,25.73,43.00
03/04/2021 06:00,1,62,62,24.26,47.00
03/04/2021 06:30,1,76,76,24.30,41.00
03/04/2021 07:00,1,106,106,23.56,36.00
03/04/2021 07:30,1,128,128,23.10,42.00
03/04/2021 08:00,1,124,124,24.62,38.00
03/04/2021 08:30,1,135,135,23.93,39.00
03/04/2021 09:00,1,160,160,23.18,39.00
03/04/2021 09:30,1,173,173,23.70,43.00
03/04/2021 10:00,1,164,164,22.85,43.00
03/04/2021 10:30,1,167,167,22.26,37.00
03/04/2021 11:00,1,157,157,22.51,40.00
03/04/2021 11:30,1,152,152,22.59,35.00
03/04/2021 12:00,1,150,150,22.22,36.00
03/04/2021 12:30,1,189,189,23.10,40.00
03/04/2021 13:00,1,172,172,23.13,41.00
03/04/2021 13:30,1,171,171,22.51,35.00
03/04/2021 14:00,1,159,159,23.58,43.00
03/04/2021 14:30,1,164,164,23.76,39.00
03/04/2021 15:00,1,142,142,24.15,41.00
03/04/2021 15:30,1,142,142,23.33,39.00
03/04/2021 16:00,1,128,128,23.72,42.00
03/04/2021 16:30,1,155,155,25.03,42.00
03/04/2021 17:00,1,146,146,24.88,41.00
03/04/2021 17:30,1,131,131,24.51,44.00
03/04/2021 18:00,1,120,120,24.75,41.00
03/04/2021 18:30,1,101,101,24.84,49.00
03/04/2021 19:00,1,107,107,24.88,53.00
03/04/2021 19:30,1,107,107,24.95,52.00
03/04/2021 20:00,1,73,73,26.71,50.00
03/04/2021 20:30,1,64,64,26.34,44.00
03/04/2021 21:00,1,61,61,30.49,45.00
03/04/2021 21:30,1,45,45,27.82,52.00
03/04/2021 22:00,1,34,34,28.12,46.00
03/04/2021 22:30,1,25,25,27.28,44.00
03/04/2021 23:00,1,27,27,28.70,48.00
03/04/2021 23:30,1,28,28,25.18,37.00
04/04/2021 00:00,1,13,13,30.92,65.00
04/04/2021 00:30,1,11,11,30.00,62.00
04/04/2021 01:00,1,8,8,31.38,56.00
04/04/2021 01:30,1,9,9,26.56,45.00
04/04/2021 02:00,1,2,2,30.00,37.00
04/04/2021 02:30,1,3,3,31.00,34.00
04/04/2021 03:00,1,5,5,39.40,54.00
04/04/2021 03:30,1,6,6,24.83,33.00
04/04/2021 04:00,1,16,16,22.88,27.00
04/04/2021 04:30,1,19,19,25.26,37.00
04/04/2021 05:00,1,15,15,26.53,33.00
04/04/2021 05:30,1,20,20,26.30,36.00
04/04/2021 06:00,1,36,36,25.61,41.00
04/04/2021 06:30,1,40,40,25.98,41.00
04/04/2021 07:00,1,59,59,25.20,37.00
04/04/2021 07:30,1,85,85,25.75,52.00
04/04/2021 08:00,1,88,88,24.91,58.00
04/04/2021 08:30,1,119,119,26.08,60.00
04/04/2021 09:00,1,135,135,24.70,43.00
04/04/2021 09:30,1,172,172,25.01,47.00
04/04/2021 10:00,1,194,194,24.24,38.00
04/04/2021 10:30,1,188,188,25.46,41.00
04/04/2021 11:00,1,194,194,24.86,43.00
04/04/2021 11:30,1,168,168,24.17,39.00
04/04/2021 12:00,1,161,161,23.94,38.00
04/04/2021 12:30,1,168,168,25.43,40.00
04/04/2021 13:00,1,184,184,23.29,38.00
04/04/2021 13:30,1,193,193,23.56,42.00
04/04/2021 14:00,1,213,213,24.77,45.00
04/04/2021 14:30,1,151,151,25.00,53.00
04/04/2021 15:00,1,142,142,24.56,43.00
04/04/2021 15:30,1,138,138,25.45,46.00
04/04/2021 16:00,1,153,153,24.03,39.00
04/04/2021 16:30,1,136,136,24.28,37.00
04/04/2021 17:00,1,128,128,25.12,43.00
04/04/2021 17:30,1,116,116,24.54,38.00
04/04/2021 18:00,1,112,112,24.60,48.00
04/04/2021 18:30,1,111,111,25.06,53.00
04/04/2021 19:00,1,118,118,24.08,46.00
04/04/2021 19:30,1,93,93,26.41,45.00
04/04/2021 20:00,1,65,65,25.58,43.00
04/04/2021 20:30,1,50,50,25.70,60.00
04/04/2021 21:00,1,61,61,28.10,52.00
04/04/2021 21:30,1,40,40,24.68,41.00
04/04/2021 22:00,1,36,36,27.00,46.00
04/04/2021 22:30,1,30,30,24.40,37.00
04/04/2021 23:00,1,18,18,29.11,39.00
04/04/2021 23:30,1,17,17,31.47,41.00
05/04/2021 00:00,1,10,10,28.00,39.00
05/04/2021 00:30,1,3,3,27.33,32.00
05/04/2021 01:30,1,4,4,26.50,36.00
05/04/2021 02:00,1,1,1,25.00,25.00
05/04/2021 02:30,1,1,1,26.00,26.00
05/04/2021 03:00,1,2,2,32.50,41.00
05/04/2021 03:30,1,7,7,29.86,43.00
05/04/2021 04:00,1,13,13,25.62,38.00
05/04/2021 04:30,1,22,22,25.59,37.00
05/04/2021 05:00,1,22,22,24.05,33.00
05/04/2021 05:30,1,21,21,27.19,42.00
05/04/2021 06:00,1,27,27,25.26,37.00
05/04/2021 06:30,1,33,33,26.18,43.00
05/04/2021 07:00,1,49,49,26.69,43.00
05/04/2021 07:30,1,81,81,26.31,45.00
05/04/2021 08:00,1,109,109,24.76,42.00
05/04/2021 08:30,1,129,129,24.22,36.00
05/04/2021 09:00,1,138,138,25.36,43.00